Change the Weather History Date:

Friday, March 7, 2014

  Actual Average Record
Temperature  
Mean Temperature 44 °F 48 °F  
Max Temperature 48 °F 58 °F 85 °F (1974)
Min Temperature 39 °F 37 °F 21 °F (1960)
Degree Days  
Heating Degree Days 21 17  
Month to date heating degree days 175 127  
Since 1 July heating degree days 2748 2599  
Cooling Degree Days 0 0  
Month to date cooling degree days 0 0  
Year to date cooling degree days 0 2  
Moisture  
Dew Point 41 °F    
Average Humidity 91    
Maximum Humidity 96    
Minimum Humidity 85    
Precipitation  
Precipitation 0.99 in 0.12 in 1.77 in (1941)
Month to date precipitation 1.19 0.74  
Year to date precipitation 5.33 7.18  
Sea Level Pressure  
Sea Level Pressure 29.86 in    
Wind  
Wind Speed 24 mph (NNE)    
Max Wind Speed 37 mph    
Max Gust Speed 47 mph    
Visibility 6 miles    
Events Rain    
T = Trace of Precipitation, MM = Missing Value Source: NWS Daily Summary

Daily Weather History Graph

Daily Weather History Graph

Search for Another Location

Airport or City:

Trip Planner

Search our weather history database for the weather conditions in past years. The results will help you decide how hot, cold, wet, or windy it might be!

Date:

Astronomy

Mar. 07, 2014 Rise Set
Actual Time 6:26 AM EST 6:05 PM EST
Civil Twilight 6:01 AM EST 6:30 PM EST
Nautical Twilight 5:31 AM EST 7:00 PM EST
Astronomical Twilight 5:01 AM EST 7:30 PM EST
Moon 10:28 AM EST (3/7) No Moon Set
Length of Visible Light 12h 29m
Length of Day
11h 38m
Waxing Crescent, 42% of the Moon is Illuminated
Mar 7
Waxing Crescent
Mar 8
First Quarter
Mar 16
Full
Mar 23
Last Quarter
Mar 30
New

Hourly Weather History & Observations

Time (EST) Temp. Windchill Dew Point Humidity Pressure Visibility Wind Dir Wind Speed Gust Speed Precip Events Conditions
12:54 AM 42.1 °F 33.9 °F 39.9 °F 92% 30.12 in 7.0 mi NNE 17.3 mph - 0.03 in Rain Light Rain
1:54 AM 42.1 °F 33.3 °F 39.9 °F 92% 30.06 in 6.0 mi NNE 19.6 mph - 0.06 in Rain Rain
2:54 AM 43.0 °F 34.8 °F 41.0 °F 93% 30.00 in 7.0 mi NNE 18.4 mph - 0.08 in Rain Light Rain
3:54 AM 45.0 °F 37.6 °F 43.0 °F 93% 29.99 in 5.0 mi NNE 17.3 mph - 0.12 in Rain Rain
4:54 AM 46.0 °F 38.8 °F 44.1 °F 93% 29.96 in 6.0 mi NNE 18.4 mph 31.1 mph 0.11 in Rain Rain
5:54 AM 46.0 °F 39.6 °F 44.1 °F 93% 29.99 in 6.0 mi North 15.0 mph - 0.12 in Rain Rain
6:54 AM 45.0 °F 37.9 °F 43.0 °F 93% 30.02 in 5.0 mi North 16.1 mph 26.5 mph 0.13 in Rain Rain
7:44 AM 44.1 °F 34.0 °F 42.1 °F 93% 29.97 in 3.0 mi NE 29.9 mph 34.5 mph 0.11 in Rain Heavy Rain
7:48 AM 44.6 °F 34.7 °F 42.8 °F 93% 29.96 in 2.5 mi NE 29.9 mph 35.7 mph 0.11 in Rain Heavy Rain
7:54 AM 44.1 °F 34.0 °F 42.1 °F 93% 29.96 in 2.5 mi NE 29.9 mph 39.1 mph 0.13 in Rain Heavy Rain
8:01 AM 44.1 °F 34.2 °F 42.1 °F 93% 29.94 in 3.0 mi NE 28.8 mph 38.0 mph 0.00 in Rain Rain
8:24 AM 44.1 °F 33.7 °F 42.1 °F 93% 29.87 in 5.0 mi NE 32.2 mph 47.2 mph 0.01 in Rain Light Rain
8:37 AM 45.0 °F 34.7 °F 43.0 °F 93% 29.87 in 9.0 mi NE 33.4 mph 41.4 mph 0.01 in Rain Light Rain
8:54 AM 45.0 °F 35.4 °F 43.0 °F 93% 29.87 in 10.0 mi NE 28.8 mph 42.6 mph 0.01 in   Overcast
9:54 AM 46.9 °F - 44.1 °F 90% 29.85 in 10.0 mi NE 28.8 mph 40.3 mph N/A   Overcast
10:54 AM 46.9 °F - 44.1 °F 90% 29.85 in 10.0 mi NNE 21.9 mph 28.8 mph N/A   Overcast
11:54 AM 44.1 °F 34.2 °F 42.1 °F 93% 29.85 in 7.0 mi NNE 28.8 mph 35.7 mph 0.00 in Rain Light Rain
12:54 PM 44.1 °F 34.6 °F 41.0 °F 89% 29.80 in 5.0 mi North 26.5 mph 36.8 mph 0.00 in Rain Light Rain
1:54 PM 43.0 °F 32.9 °F 41.0 °F 93% 29.76 in 7.0 mi North 27.6 mph 40.3 mph 0.00 in Rain Light Rain
2:42 PM 43.0 °F 32.5 °F 39.9 °F 89% 29.75 in 2.5 mi North 29.9 mph 40.3 mph 0.01 in Rain Light Rain
2:51 PM 42.8 °F 33.1 °F 39.2 °F 87% 29.76 in 4.0 mi North 25.3 mph 38.0 mph 0.01 in Rain Light Rain
2:54 PM 43.0 °F 32.9 °F 39.9 °F 89% 29.75 in 4.0 mi North 27.6 mph 36.8 mph 0.01 in Rain Light Rain
3:14 PM 42.1 °F 31.5 °F 39.9 °F 92% 29.75 in 1.8 mi North 28.8 mph 41.4 mph 0.03 in Rain Rain
3:26 PM 42.1 °F 30.8 °F 39.9 °F 92% 29.74 in 2.5 mi North 33.4 mph 41.4 mph 0.05 in Rain Rain
3:54 PM 42.1 °F 31.1 °F 39.9 °F 92% 29.73 in 2.0 mi North 31.1 mph 42.6 mph 0.05 in Rain Light Rain
4:54 PM 42.1 °F 32.3 °F 39.9 °F 92% 29.74 in 4.0 mi North 24.2 mph 32.2 mph 0.02 in Rain Light Rain
5:54 PM 41.0 °F 30.7 °F 39.0 °F 93% 29.75 in 8.0 mi North 25.3 mph 33.4 mph 0.00 in Rain Light Rain
6:54 PM 39.9 °F 29.5 °F 37.0 °F 89% 29.74 in 10.0 mi North 24.2 mph 34.5 mph 0.00 in Rain Light Rain
7:54 PM 39.0 °F 27.8 °F 37.0 °F 93% 29.75 in 5.0 mi North 26.5 mph 39.1 mph 0.12 in Rain Rain
8:54 PM 39.0 °F 28.3 °F 37.0 °F 93% 29.77 in 10.0 mi NNW 24.2 mph 35.7 mph 0.00 in   Overcast
9:06 PM 39.0 °F 28.3 °F 37.0 °F 93% 29.77 in 10.0 mi NNW 24.2 mph 32.2 mph N/A   Overcast
9:54 PM 39.0 °F 28.5 °F 37.0 °F 93% 29.78 in 10.0 mi NNW 23.0 mph 31.1 mph 0.00 in   Overcast
10:54 PM 39.0 °F 28.5 °F 36.0 °F 89% 29.81 in 10.0 mi NNW 23.0 mph - N/A   Overcast
11:54 PM 39.0 °F 29.0 °F 36.0 °F 89% 29.83 in 10.0 mi NNW 20.7 mph - N/A   Overcast